Weather History for Sioux Falls, SD

Change the Weather History Date:

Thursday, December 13, 2012

  Actual Average Record
Temperature  
Mean Temperature 27 °F 19 °F  
Max Temperature 35 °F 29 °F 60 °F (1921)
Min Temperature 19 °F 10 °F -28 °F (1903)
Degree Days  
Heating Degree Days 38 46  
Month to date heating degree days 436 566  
Since 1 July heating degree days 2039 2278  
Cooling Degree Days 0 0  
Month to date cooling degree days 0 0  
Year to date cooling degree days 1182 690  
Moisture  
Dew Point 18 °F    
Average Humidity 72    
Maximum Humidity 92    
Minimum Humidity 52    
Precipitation  
Precipitation 0.00 in 0.02 in 0.47 in (1937)
Month to date precipitation 0.20 0.34  
Year to date precipitation 16.23 26.03  
Snow  
Snow 0.00 in 0.20 in 3.00 in (1937)
Month to date snowfall 3.0 3.6  
Since 1 July snowfall 4.1 12.3  
Snow Depth T in    
Sea Level Pressure  
Sea Level Pressure 30.03 in    
Wind  
Wind Speed 5 mph (NNE)    
Max Wind Speed 13 mph    
Max Gust Speed 18 mph    
Visibility 9 miles    
Events      
T = Trace of Precipitation, MM = Missing Value Source: NWS Daily Summary

Daily Weather History Graph

Daily Weather History Graph

Search for Another Location

Airport:

Trip Planner

Search our weather history database for the weather conditions in past years. The results will help you decide how hot, cold, wet, or windy it might be!

Date:

Astronomy

Dec. 13, 2012 Rise Set
Actual Time 7:52 AM CST 4:50 PM CST
Civil Twilight 7:19 AM CST 5:23 PM CST
Nautical Twilight 6:43 AM CST 5:59 PM CST
Astronomical Twilight 6:08 AM CST 6:34 PM CST
Moon 8:01 AM CST (12/13) 5:35 PM CST (12/13)
Length of Visible Light 10h 03m
Length of Day
8h 58m
New Moon, 0% of the Moon is Illuminated
Dec 13
New Moon
Dec 19
First Quarter
Dec 28
Full
Jan 4
Last Quarter
Jan 11
New

Hourly Weather History & Observations

Time (CST) Temp. Windchill Dew Point Humidity Pressure Visibility Wind Dir Wind Speed Gust Speed Precip Events Conditions
12:56 AM 35.1 °F 26.4 °F 19.0 °F 52% 29.84 in 10.0 mi South 12.7 mph - N/A   Clear
1:56 AM 34.0 °F 26.0 °F 19.0 °F 54% 29.85 in 10.0 mi South 10.4 mph 17.3 mph N/A   Clear
2:56 AM 33.8 °F 27.7 °F 19.4 °F 56% 29.82 in 10.0 mi South 6.9 mph - N/A   Clear
3:56 AM 32.0 °F 26.4 °F 19.0 °F 59% 29.85 in 10.0 mi SSW 5.8 mph - N/A   Clear
4:56 AM 30.9 °F 27.5 °F 18.0 °F 59% 29.88 in 10.0 mi SSW 3.5 mph - N/A   Clear
5:56 AM 27.0 °F - 18.0 °F 69% 29.91 in 10.0 mi Calm Calm - N/A   Clear
6:56 AM 24.1 °F - 17.1 °F 75% 29.94 in 10.0 mi Calm Calm - N/A   Clear
7:56 AM 21.9 °F 14.5 °F 17.1 °F 82% 29.97 in 10.0 mi North 5.8 mph - N/A   Clear
8:56 AM 19.9 °F 10.1 °F 15.1 °F 81% 30.02 in 10.0 mi North 8.1 mph - N/A   Clear
9:56 AM 19.0 °F 9.0 °F 15.1 °F 85% 30.07 in 9.0 mi North 8.1 mph - N/A   Clear
10:56 AM 19.9 °F 10.1 °F 16.0 °F 85% 30.08 in 9.0 mi NNE 8.1 mph - N/A   Clear
11:56 AM 26.1 °F 21.9 °F 19.0 °F 75% 30.07 in 10.0 mi NNW 3.5 mph - N/A   Clear
12:56 PM 28.9 °F 22.8 °F 19.9 °F 69% 30.09 in 10.0 mi NW 5.8 mph - N/A   Clear
1:56 PM 28.9 °F 21.1 °F 21.0 °F 72% 30.07 in 10.0 mi North 8.1 mph - N/A   Clear
2:56 PM 28.9 °F 25.2 °F 21.0 °F 72% 30.11 in 10.0 mi SW 3.5 mph - N/A   Clear
3:56 PM 28.9 °F 21.9 °F 21.9 °F 75% 30.09 in 10.0 mi North 6.9 mph - N/A   Clear
4:56 PM 26.6 °F 20.0 °F 21.2 °F 80% 30.05 in 8.0 mi North 5.8 mph - N/A   Clear
6:56 PM 21.9 °F - 19.0 °F 89% 30.14 in 7.0 mi Calm Calm - N/A   Clear
7:56 PM 19.9 °F 14.9 °F 18.0 °F 92% 30.13 in 7.0 mi NE 3.5 mph - N/A   Clear
8:56 PM 21.0 °F - 18.0 °F 88% 30.14 in 6.0 mi Calm Calm - N/A   Clear
9:56 PM 19.0 °F - 17.1 °F 92% 30.14 in 5.0 mi Calm Calm - N/A   Clear
10:56 PM 19.0 °F 13.9 °F 16.0 °F 88% 30.14 in 5.0 mi East 3.5 mph - N/A   Clear
11:56 PM 19.9 °F 14.9 °F 18.0 °F 92% 30.13 in 5.0 mi East 3.5 mph - N/A   Clear